Location: Gibsondale
(40.9931°N, 80.2478°W)
Time: 23:48:08
(UTC+00:00)

Cosmos 2227 Rocket - Pass Details

Date: 29 October 2020
Orbit: 839 x 845 km, 71.0° (Epoch: 29 November)

Event Time Altitude Azimuth Distance (km) Brightness Sun altitude
Rises 23:40:46 0° 334° (NNW) 3,405 5.6 -15.8°
Reaches altitude 10° 23:43:13 10° 333° (NNW) 2,468 4.9 -16.2°
Maximum altitude 23:48:52 74° 250° (WSW) 879 2.4 -17.3°
Drops below altitude 10° 23:54:29 10° 165° (SSE) 2,456 4.5 -18.4°
Sets 23:56:55 0° 164° (SSE) 3,388 5.2 -18.8°
